When you browse on this site, cookies collect data to enhance your experience and personalize the content and advertising you see.
Visit our Privacy Policy to learn more. By continuing to use the site, you agree to this use of cookies and data.
  • In Spain
  • List of Countries
  • For 7 days
  • Water Temperature
  • Satellite Maps
  • Weather Map
  • Weather Widgets
  • user-avatar
    Login

    Hourly Weather Mumbai

    Today, 19 April, Friday

    Time Temperature Precipitation Wind Pressure Humidity
    00:00 +30°C° 0 mm 4 mps 757 mmHg 61%
    01:00 +29°C° 0 mm 4 mps 757 mmHg 64%
    02:00 +29°C° 0 mm 4 mps 756 mmHg 67%
    03:00 +29°C° 0 mm 4 mps 756 mmHg 67%
    04:00 +28°C° 0 mm 4 mps 756 mmHg 67%
    05:00 +28°C° 0 mm 3 mps 756 mmHg 67%
    06:00 +29°C° 0 mm 3 mps 756 mmHg 61%
    07:00 +30°C° 0 mm 3 mps 757 mmHg 56%
    08:00 +31°C° 0 mm 3 mps 757 mmHg 50%
    09:00 +34°C° 0 mm 3 mps 757 mmHg 43%
    10:00 +36°C° 0 mm 3 mps 757 mmHg 35%
    11:00 +38°C° 0 mm 3 mps 757 mmHg 28%
    12:00 +40°C° 0 mm 4 mps 756 mmHg 27%
    13:00 +41°C° 0 mm 5 mps 755 mmHg 25%
    14:00 +42°C° 0 mm 6 mps 754 mmHg 24%
    15:00 +41°C° 0 mm 6 mps 754 mmHg 26%
    16:00 +40°C° 0 mm 6 mps 754 mmHg 28%
    17:00 +39°C° 0 mm 6 mps 753 mmHg 31%
    18:00 +37°C° 0 mm 5 mps 754 mmHg 33%
    19:00 +36°C° 0 mm 4 mps 754 mmHg 35%
    20:00 +34°C° 0 mm 3 mps 755 mmHg 37%
    21:00 +34°C° 0 mm 3 mps 755 mmHg 37%
    22:00 +33°C° 0 mm 3 mps 755 mmHg 36%
    23:00 +32°C° 0 mm 2 mps 756 mmHg 36%

    Tomorrow, 20 April, Saturday

    Time Temperature Precipitation Wind Pressure Humidity
    00:00 +31°C° 0 mm 3 mps 755 mmHg 42%
    01:00 +30°C° 0 mm 3 mps 755 mmHg 48%
    02:00 +30°C° 0 mm 3 mps 755 mmHg 53%
    03:00 +29°C° 0 mm 2 mps 754 mmHg 56%
    04:00 +29°C° 0 mm 2 mps 754 mmHg 58%
    05:00 +28°C° 0 mm 1 mps 754 mmHg 60%
    06:00 +29°C° 0 mm 1 mps 755 mmHg 55%
    07:00 +28°C° 0 mm 0 mps 755 mmHg 50%
    08:00 +30°C° 0 mm 0 mps 755 mmHg 45%
    09:00 +32°C° 0 mm 0 mps 755 mmHg 38%
    10:00 +36°C° 0 mm 1 mps 755 mmHg 32%
    11:00 +39°C° 0 mm 1 mps 755 mmHg 25%
    12:00 +39°C° 0 mm 2 mps 755 mmHg 24%
    13:00 +41°C° 0 mm 4 mps 754 mmHg 24%
    14:00 +41°C° 0 mm 5 mps 754 mmHg 23%
    15:00 +40°C° 0 mm 5 mps 753 mmHg 28%
    16:00 +39°C° 0 mm 5 mps 753 mmHg 33%
    17:00 +36°C° 0 mm 4 mps 753 mmHg 38%
    18:00 +35°C° 0 mm 4 mps 754 mmHg 43%
    19:00 +34°C° 0 mm 3 mps 754 mmHg 48%
    20:00 +33°C° 0 mm 3 mps 755 mmHg 54%
    21:00 +31°C° 0 mm 2 mps 755 mmHg 57%
    22:00 +31°C° 0 mm 2 mps 755 mmHg 60%
    23:00 +30°C° 0 mm 2 mps 756 mmHg 63%

    Day after tomorrow, 21 April, Sunday

    Time Temperature Precipitation Wind Pressure Humidity
    00:00 +30°C° 0 mm 2 mps 755 mmHg 66%
    01:00 +29°C° 0 mm 2 mps 755 mmHg 68%
    02:00 +29°C° 0 mm 1 mps 754 mmHg 70%
    03:00 +28°C° 0 mm 1 mps 754 mmHg 71%
    04:00 +28°C° 0 mm 1 mps 754 mmHg 72%
    05:00 +28°C° 0 mm 1 mps 754 mmHg 73%
    06:00 +29°C° 0 mm 1 mps 755 mmHg 67%
    07:00 +30°C° 0 mm 1 mps 756 mmHg 61%
    08:00 +30°C° 0 mm 2 mps 756 mmHg 55%
    09:00 +32°C° 0 mm 2 mps 756 mmHg 46%
    10:00 +35°C° 0 mm 2 mps 756 mmHg 37%
    11:00 +37°C° 0 mm 2 mps 756 mmHg 28%
    12:00 +38°C° 0 mm 3 mps 755 mmHg 28%
    13:00 +38°C° 0 mm 4 mps 755 mmHg 28%
    14:00 +40°C° 0 mm 5 mps 754 mmHg 28%
    15:00 +39°C° 0 mm 5 mps 754 mmHg 32%
    16:00 +37°C° 0 mm 5 mps 753 mmHg 36%
    17:00 +36°C° 0 mm 5 mps 753 mmHg 40%
    18:00 +35°C° 0 mm 4 mps 754 mmHg 45%
    19:00 +34°C° 0 mm 3 mps 754 mmHg 50%
    20:00 +31°C° 0 mm 3 mps 755 mmHg 55%
    21:00 +31°C° 0 mm 2 mps 755 mmHg 57%
    22:00 +30°C° 0 mm 2 mps 756 mmHg 60%
    23:00 +30°C° 0 mm 2 mps 756 mmHg 62%

    22 April, Monday

    Time Temperature Precipitation Wind Pressure Humidity
    00:00 +29°C° 0 mm 2 mps 755 mmHg 65%
    01:00 +29°C° 0 mm 2 mps 755 mmHg 67%
    02:00 +29°C° 0 mm 2 mps 754 mmHg 69%
    03:00 +28°C° 0 mm 2 mps 754 mmHg 69%
    04:00 +28°C° 0 mm 2 mps 754 mmHg 68%
    05:00 +28°C° 0 mm 2 mps 755 mmHg 68%
    06:00 +29°C° 0 mm 2 mps 755 mmHg 61%
    07:00 +30°C° 0 mm 2 mps 756 mmHg 53%
    08:00 +31°C° 0 mm 2 mps 756 mmHg 46%
    09:00 +34°C° 0 mm 2 mps 756 mmHg 38%
    10:00 +37°C° 0 mm 2 mps 756 mmHg 30%
    11:00 +39°C° 0 mm 2 mps 756 mmHg 22%
    12:00 +39°C° 0 mm 3 mps 756 mmHg 23%
    13:00 +41°C° 0 mm 4 mps 755 mmHg 24%
    14:00 +41°C° 0 mm 5 mps 754 mmHg 25%
    15:00 +40°C° 0 mm 5 mps 754 mmHg 29%
    16:00 +39°C° 0 mm 6 mps 754 mmHg 33%
    17:00 +38°C° 0 mm 6 mps 754 mmHg 37%
    18:00 +36°C° 0 mm 5 mps 754 mmHg 42%
    19:00 +34°C° 0 mm 4 mps 755 mmHg 47%
    20:00 +33°C° 0 mm 4 mps 755 mmHg 52%
    21:00 +33°C° 0 mm 4 mps 756 mmHg 55%
    22:00 +32°C° 0 mm 4 mps 756 mmHg 57%
    23:00 +32°C° 0 mm 4 mps 756 mmHg 60%

    23 April, Tuesday

    Time Temperature Precipitation Wind Pressure Humidity
    00:00 +30°C° 0 mm 4 mps 755 mmHg 62%
    01:00 +30°C° 0 mm 4 mps 755 mmHg 64%
    02:00 +30°C° 0 mm 4 mps 754 mmHg 66%
    03:00 +29°C° 0 mm 3 mps 755 mmHg 66%
    04:00 +29°C° 0 mm 3 mps 755 mmHg 65%
    05:00 +29°C° 0 mm 2 mps 755 mmHg 64%
    06:00 +30°C° 0 mm 2 mps 756 mmHg 58%
    07:00 +31°C° 0 mm 2 mps 756 mmHg 51%
    08:00 +32°C° 0 mm 1 mps 757 mmHg 45%
    09:00 +35°C° 0 mm 2 mps 757 mmHg 39%
    10:00 +37°C° 0 mm 2 mps 757 mmHg 33%
    11:00 +39°C° 0 mm 3 mps 757 mmHg 27%
    12:00 +41°C° 0 mm 4 mps 756 mmHg 25%
    13:00 +42°C° 0 mm 5 mps 755 mmHg 24%
    14:00 +44°C° 0 mm 6 mps 754 mmHg 22%
    15:00 +42°C° 0 mm 6 mps 754 mmHg 25%
    16:00 +41°C° 0 mm 7 mps 754 mmHg 28%
    17:00 +39°C° 0 mm 7 mps 754 mmHg 31%
    18:00 +38°C° 0 mm 6 mps 754 mmHg 37%
    19:00 +35°C° 0 mm 5 mps 755 mmHg 42%
    20:00 +34°C° 0 mm 5 mps 756 mmHg 47%
    21:00 +33°C° 0 mm 4 mps 756 mmHg 51%
    22:00 +33°C° 0 mm 4 mps 756 mmHg 55%
    23:00 +32°C° 0 mm 4 mps 756 mmHg 58%

    24 April, Wednesday

    Time Temperature Precipitation Wind Pressure Humidity
    00:00 +32°C° 0 mm 4 mps 756 mmHg 60%
    01:00 +30°C° 0 mm 4 mps 755 mmHg 62%
    02:00 +30°C° 0 mm 3 mps 755 mmHg 65%
    03:00 +30°C° 0 mm 3 mps 755 mmHg 65%
    04:00 +29°C° 0 mm 2 mps 755 mmHg 66%
    05:00 +29°C° 0 mm 2 mps 756 mmHg 66%
    06:00 +30°C° 0 mm 2 mps 756 mmHg 61%
    07:00 +31°C° 0 mm 2 mps 757 mmHg 56%
    08:00 +33°C° 0 mm 3 mps 758 mmHg 51%
    09:00 +35°C° 0 mm 3 mps 757 mmHg 45%
    10:00 +37°C° 0 mm 4 mps 757 mmHg 39%
    11:00 +40°C° 0 mm 4 mps 757 mmHg 33%
    12:00 +40°C° 0 mm 5 mps 756 mmHg 32%
    13:00 +41°C° 0 mm 6 mps 756 mmHg 32%
    14:00 +43°C° 0 mm 7 mps 755 mmHg 31%
    15:00 +41°C° 0 mm 7 mps 755 mmHg 33%
    16:00 +40°C° 0 mm 8 mps 754 mmHg 36%
    17:00 +38°C° 0 mm 8 mps 754 mmHg 39%
    18:00 +36°C° 0 mm 7 mps 755 mmHg 41%
    19:00 +35°C° 0 mm 6 mps 755 mmHg 44%
    20:00 +34°C° 0 mm 5 mps 756 mmHg 46%
    21:00 +33°C° 0 mm 5 mps 756 mmHg 48%
    22:00 +33°C° 0 mm 5 mps 756 mmHg 50%
    23:00 +32°C° 0 mm 4 mps 756 mmHg 52%
    Show more